Tampa Macdill AFB, FL

4:19 AM EDT on April 27, 2018 (GMT -0400)
MacDill Air Force Base

Weather History for KMCF - April, 2013

Change the Weather History Date:

Wednesday, April 17, 2013

  Actual Average Record
Temperature  
Mean Temperature 76 °F -  
Max Temperature 88 °F 79 °F 88 °F (2013)
Min Temperature 65 °F 61 °F 47 °F (2008)
Cooling Degree Days 11    
Growing Degree Days 26 (Base 50)    
Moisture  
Dew Point 66 °F    
Average Humidity 69    
Maximum Humidity 100    
Minimum Humidity 41    
Precipitation  
Precipitation 0.00 in - - ()
Sea Level Pressure  
Sea Level Pressure 30.10 in    
Wind  
Wind Speed 10 mph (East)    
Max Wind Speed 15 mph    
Max Gust Speed 20 mph    
Visibility 10 miles    
Events      
Averages and records for this station are not official NWS values.
T = Trace of Precipitation, MM = Missing Value Source: NWS Daily Summary

Daily Weather History Graph

Daily Weather History Graph

Search for Another Location

Airport or City:

Astronomy

Apr. 17, 2013 Rise Set
Actual Time 7:03 AM EDT 7:56 PM EDT
Civil Twilight 6:38 AM EDT 8:20 PM EDT
Nautical Twilight 6:10 AM EDT 8:49 PM EDT
Astronomical Twilight 5:41 AM EDT 9:18 PM EDT
Moon 12:25 PM EDT (4/17) 1:22 AM EDT (4/17)
Length of Visible Light 13h 41m
Length of Day
12h 53m
Waxing Crescent, 42% of the Moon is Illuminated
Apr 17
Waxing Crescent
Apr 18
First Quarter
Apr 25
Full
May 2
Last Quarter
May 9
New

Hourly Weather History & Observations

Time (EDT) Temp. Heat Index Dew Point Humidity Pressure Visibility Wind Dir Wind Speed Gust Speed Precip Events Conditions
12:58 AM 73.0 °F - 69.3 °F 88% 30.15 in 10.0 mi ESE 9.2 mph - N/A   Clear
1:58 AM 71.6 °F - 68.9 °F 91% 30.14 in 10.0 mi ESE 6.9 mph - N/A   Clear
2:58 AM 70.5 °F - 68.9 °F 95% 30.13 in 10.0 mi East 6.9 mph - N/A   Clear
4:58 AM 68.9 °F - 67.8 °F 96% 30.12 in 10.0 mi East 8.1 mph - N/A   Clear
5:58 AM 67.8 °F - 67.5 °F 99% 30.12 in 10.0 mi East 8.1 mph - N/A   Clear
6:58 AM 65.7 °F - 64.9 °F 98% 30.14 in 10.0 mi ENE 5.8 mph - N/A   Clear
7:58 AM 68.0 °F - 68.0 °F 100% 30.15 in 10.0 mi East 11.5 mph - N/A   Clear
8:58 AM 73.2 °F - 70.2 °F 90% 30.16 in 10.0 mi East 12.7 mph - N/A   Clear
9:58 AM 77.2 °F - 68.7 °F 75% 30.15 in 10.0 mi East 13.8 mph - N/A   Clear
10:58 AM 80.4 °F 83.0 °F 67.6 °F 65% 30.14 in 10.0 mi East 13.8 mph - N/A   Clear
11:58 AM 82.9 °F 85.0 °F 65.7 °F 56% 30.13 in 10.0 mi East 11.5 mph - N/A   Clear
12:58 PM 85.1 °F 86.4 °F 63.7 °F 49% 30.10 in 10.0 mi East 15.0 mph 19.6 mph N/A   Partly Cloudy
1:58 PM 86.7 °F 87.5 °F 63.3 °F 45% 30.09 in 10.0 mi ENE 10.4 mph 18.4 mph N/A   Partly Cloudy
2:58 PM 87.4 °F 87.7 °F 61.7 °F 42% 30.08 in 10.0 mi ESE 11.5 mph 18.4 mph N/A   Clear
3:58 PM 87.3 °F 87.5 °F 61.9 °F 42% 30.05 in 10.0 mi ENE 10.4 mph - N/A   Clear
4:58 PM 87.1 °F 87.0 °F 60.8 °F 41% 30.04 in 10.0 mi Variable 6.9 mph - N/A   Partly Cloudy
5:58 PM 86.7 °F 87.3 °F 62.4 °F 44% 30.04 in 10.0 mi SE 6.9 mph - N/A   Scattered Clouds
6:58 PM 84.7 °F 85.6 °F 62.8 °F 48% 30.04 in 10.0 mi ESE 8.1 mph - N/A   Scattered Clouds
7:58 PM 81.5 °F 83.1 °F 64.2 °F 56% 30.05 in 10.0 mi ESE 9.2 mph - N/A   Scattered Clouds
8:58 PM 79.7 °F - 66.0 °F 63% 30.06 in 10.0 mi East 15.0 mph - N/A   Clear
9:58 PM 77.7 °F - 65.8 °F 67% 30.09 in 10.0 mi ESE 13.8 mph - N/A   Clear
10:58 PM 75.9 °F - 65.7 °F 70% 30.08 in 10.0 mi East 15.0 mph - N/A   Clear
11:58 PM 74.1 °F - 66.6 °F 77% 30.07 in 10.0 mi ESE 11.5 mph - N/A   Clear